Year,Month,Day,Hour,Minute,Value (Times are PST for temperature in C)
2010,08,21,00,00,9.80
2010,08,21,00,01,9.80
2010,08,21,00,02,9.70
2010,08,21,00,03,9.70
2010,08,21,00,04,9.70
2010,08,21,00,05,9.70
2010,08,21,00,06,9.70
2010,08,21,00,07,9.70
2010,08,21,00,08,9.70
2010,08,21,00,09,9.70
2010,08,21,00,10,9.70
2010,08,21,00,11,9.60
2010,08,21,00,12,9.60
2010,08,21,00,13,9.60
2010,08,21,00,14,9.60
2010,08,21,00,15,9.60
2010,08,21,00,16,9.60
2010,08,21,00,17,9.50
2010,08,21,00,18,9.50
2010,08,21,00,19,9.50
2010,08,21,00,20,9.50
2010,08,21,00,21,9.50
2010,08,21,00,22,9.50
2010,08,21,00,23,9.50
2010,08,21,00,24,9.50
2010,08,21,00,25,9.40
2010,08,21,00,26,9.40
2010,08,21,00,27,9.40
2010,08,21,00,28,9.40
2010,08,21,00,29,9.40
2010,08,21,00,30,9.40
2010,08,21,00,31,9.40
2010,08,21,00,32,9.40
2010,08,21,00,33,9.40
2010,08,21,00,34,9.40
2010,08,21,00,35,9.40
2010,08,21,00,36,9.40
2010,08,21,00,37,9.40
2010,08,21,00,38,9.40
2010,08,21,00,39,9.40
2010,08,21,00,40,9.30
2010,08,21,00,41,9.30
2010,08,21,00,42,9.30
2010,08,21,00,43,9.30
2010,08,21,00,44,9.30
2010,08,21,00,45,9.30
2010,08,21,00,46,9.30
2010,08,21,00,47,9.30
2010,08,21,00,48,9.20
2010,08,21,00,49,9.20
2010,08,21,00,50,9.20
2010,08,21,00,51,9.20
2010,08,21,00,52,9.20
2010,08,21,00,53,9.20
2010,08,21,00,54,9.20
2010,08,21,00,55,9.20
2010,08,21,00,56,9.20
2010,08,21,00,57,9.20
2010,08,21,00,58,9.20
2010,08,21,00,59,9.20
2010,08,21,01,00,9.20
2010,08,21,01,01,9.20
2010,08,21,01,02,9.20
2010,08,21,01,03,9.20
2010,08,21,01,04,9.10
2010,08,21,01,05,9.10
2010,08,21,01,06,9.10
2010,08,21,01,07,9.10
2010,08,21,01,08,9.10
2010,08,21,01,09,9.10
2010,08,21,01,10,9.10
2010,08,21,01,11,9.10
2010,08,21,01,12,9.10
2010,08,21,01,13,9.00
2010,08,21,01,14,9.00
2010,08,21,01,15,9.00
2010,08,21,01,16,9.00
2010,08,21,01,17,9.00
2010,08,21,01,18,9.00
2010,08,21,01,19,9.00
2010,08,21,01,20,9.00
2010,08,21,01,21,9.00
2010,08,21,01,22,9.00
2010,08,21,01,23,9.00
2010,08,21,01,24,9.00
2010,08,21,01,25,9.00
2010,08,21,01,26,9.10
2010,08,21,01,27,9.10
2010,08,21,01,28,9.10
2010,08,21,01,29,9.10
2010,08,21,01,30,9.10
2010,08,21,01,31,9.10
2010,08,21,01,32,9.10
2010,08,21,01,33,9.10
2010,08,21,01,34,9.10
2010,08,21,01,35,9.00
2010,08,21,01,36,9.00
2010,08,21,01,37,9.00
2010,08,21,01,38,9.00
2010,08,21,01,39,9.00
2010,08,21,01,40,9.00
2010,08,21,01,41,9.00
2010,08,21,01,42,9.00
2010,08,21,01,43,9.00
2010,08,21,01,44,9.00
2010,08,21,01,45,9.00
2010,08,21,01,46,9.00
2010,08,21,01,47,9.00
2010,08,21,01,48,9.10
2010,08,21,01,49,9.10
2010,08,21,01,50,9.10
2010,08,21,01,51,9.10
2010,08,21,01,52,9.10
2010,08,21,01,53,9.10
2010,08,21,01,54,9.10
2010,08,21,01,55,9.20
2010,08,21,01,56,9.20
2010,08,21,01,57,9.20
2010,08,21,01,58,9.20
2010,08,21,01,59,9.20
2010,08,21,02,00,9.20
2010,08,21,02,01,9.20
2010,08,21,02,02,9.20
2010,08,21,02,03,9.20
2010,08,21,02,04,9.20
2010,08,21,02,05,9.20
2010,08,21,02,06,9.20
2010,08,21,02,07,9.20
2010,08,21,02,08,9.20
2010,08,21,02,09,9.20
2010,08,21,02,10,9.20
2010,08,21,02,11,9.20
2010,08,21,02,12,9.20
2010,08,21,02,13,9.20
2010,08,21,02,14,9.20
2010,08,21,02,15,9.20
2010,08,21,02,16,9.20
2010,08,21,02,17,9.20
2010,08,21,02,18,9.20
2010,08,21,02,19,9.30
2010,08,21,02,20,9.30
2010,08,21,02,21,9.30
2010,08,21,02,22,9.30
2010,08,21,02,23,9.30
2010,08,21,02,24,9.40
2010,08,21,02,25,9.40
2010,08,21,02,26,9.40
2010,08,21,02,27,9.50
2010,08,21,02,28,9.50
2010,08,21,02,29,9.50
2010,08,21,02,30,9.60
2010,08,21,02,31,9.60
2010,08,21,02,32,9.70
2010,08,21,02,33,9.70
2010,08,21,02,34,9.70
2010,08,21,02,35,9.70
2010,08,21,02,36,9.70
2010,08,21,02,37,9.70
2010,08,21,02,38,9.70
2010,08,21,02,39,9.70
2010,08,21,02,40,9.80
2010,08,21,02,41,9.80
2010,08,21,02,42,9.80
2010,08,21,02,43,9.80
2010,08,21,02,44,9.80
2010,08,21,02,45,9.80
2010,08,21,02,46,9.80
2010,08,21,02,47,9.80
2010,08,21,02,48,9.80
2010,08,21,02,49,9.80
2010,08,21,02,50,9.80
2010,08,21,02,51,9.80
2010,08,21,02,52,9.80
2010,08,21,02,53,9.80
2010,08,21,02,54,9.80
2010,08,21,02,55,9.80
2010,08,21,02,56,9.80
2010,08,21,02,57,9.80
2010,08,21,02,58,9.80
2010,08,21,02,59,9.80
2010,08,21,03,00,9.80
2010,08,21,03,01,9.80
2010,08,21,03,02,9.70
2010,08,21,03,03,9.70
2010,08,21,03,04,9.70
2010,08,21,03,05,9.70
2010,08,21,03,06,9.60
2010,08,21,03,07,9.60
2010,08,21,03,08,9.50
2010,08,21,03,09,9.40
2010,08,21,03,10,9.40
2010,08,21,03,11,9.30
2010,08,21,03,12,9.30
2010,08,21,03,13,9.30
2010,08,21,03,14,9.20
2010,08,21,03,15,9.20
2010,08,21,03,16,9.20
2010,08,21,03,17,9.10
2010,08,21,03,18,9.10
2010,08,21,03,19,9.00
2010,08,21,03,20,9.00
2010,08,21,03,21,8.90
2010,08,21,03,22,8.90
2010,08,21,03,23,8.80
2010,08,21,03,24,8.80
2010,08,21,03,25,8.70
2010,08,21,03,26,8.70
2010,08,21,03,27,8.70
2010,08,21,03,28,8.70
2010,08,21,03,29,8.70
2010,08,21,03,30,8.70
2010,08,21,03,31,8.70
2010,08,21,03,32,8.70
2010,08,21,03,33,8.70
2010,08,21,03,34,8.70
2010,08,21,03,35,8.70
2010,08,21,03,36,8.70
2010,08,21,03,37,8.70
2010,08,21,03,38,8.70
2010,08,21,03,39,8.70
2010,08,21,03,40,8.70
2010,08,21,03,41,8.70
2010,08,21,03,42,8.70
2010,08,21,03,43,8.70
2010,08,21,03,44,8.70
2010,08,21,03,45,8.70
2010,08,21,03,46,8.70
2010,08,21,03,47,8.70
2010,08,21,03,48,8.70
2010,08,21,03,49,8.70
2010,08,21,03,50,8.70
2010,08,21,03,51,8.70
2010,08,21,03,52,8.70
2010,08,21,03,53,8.70
2010,08,21,03,54,8.70
2010,08,21,03,55,8.70
2010,08,21,03,56,8.70
2010,08,21,03,57,8.60
2010,08,21,03,58,8.60
2010,08,21,03,59,8.50
2010,08,21,04,00,8.50
2010,08,21,04,01,8.40
2010,08,21,04,02,8.40
2010,08,21,04,03,8.40
2010,08,21,04,04,8.30
2010,08,21,04,05,8.30
2010,08,21,04,06,8.30
2010,08,21,04,07,8.30
2010,08,21,04,08,8.30
2010,08,21,04,09,8.20
2010,08,21,04,10,8.20
2010,08,21,04,11,8.20
2010,08,21,04,12,8.20
2010,08,21,04,13,8.20
2010,08,21,04,14,8.20
2010,08,21,04,15,8.20
2010,08,21,04,16,8.20
2010,08,21,04,17,8.20
2010,08,21,04,18,8.20
2010,08,21,04,19,8.20
2010,08,21,04,20,8.10
2010,08,21,04,21,8.10
2010,08,21,04,22,8.10
2010,08,21,04,23,8.00
2010,08,21,04,24,8.00
2010,08,21,04,25,8.00
2010,08,21,04,26,8.00
2010,08,21,04,27,8.00
2010,08,21,04,28,8.00
2010,08,21,04,29,7.90
2010,08,21,04,30,7.90
2010,08,21,04,31,7.90
2010,08,21,04,32,7.90
2010,08,21,04,33,7.90
2010,08,21,04,34,7.80
2010,08,21,04,35,7.80
2010,08,21,04,36,7.80
2010,08,21,04,37,7.80
2010,08,21,04,38,7.80
2010,08,21,04,39,7.80
2010,08,21,04,40,7.80
2010,08,21,04,41,7.80
2010,08,21,04,42,7.80
2010,08,21,04,43,7.80
2010,08,21,04,44,7.70
2010,08,21,04,45,7.70
2010,08,21,04,46,7.70
2010,08,21,04,47,7.70
2010,08,21,04,48,7.70
2010,08,21,04,49,7.70
2010,08,21,04,50,7.70
2010,08,21,04,51,7.70
2010,08,21,04,52,7.70
2010,08,21,04,53,7.70
2010,08,21,04,54,7.70
2010,08,21,04,55,7.70
2010,08,21,04,56,7.70
2010,08,21,04,57,7.70
2010,08,21,04,58,7.70
2010,08,21,04,59,7.70
2010,08,21,05,00,7.70
2010,08,21,05,01,7.70
2010,08,21,05,02,7.60
2010,08,21,05,03,7.60
2010,08,21,05,04,7.60
2010,08,21,05,05,7.60
2010,08,21,05,06,7.60
2010,08,21,05,07,7.50
2010,08,21,05,08,7.50
2010,08,21,05,09,7.50
2010,08,21,05,10,7.50
2010,08,21,05,11,7.50
2010,08,21,05,12,7.40
2010,08,21,05,13,7.40
2010,08,21,05,14,7.40
2010,08,21,05,15,7.40
2010,08,21,05,16,7.40
2010,08,21,05,17,7.40
2010,08,21,05,18,7.40
2010,08,21,05,19,7.40
2010,08,21,05,20,7.40
2010,08,21,05,21,7.40
2010,08,21,05,22,7.40
2010,08,21,05,23,7.40
2010,08,21,05,24,7.40
2010,08,21,05,25,7.40
2010,08,21,05,26,7.30
2010,08,21,05,27,7.30
2010,08,21,05,28,7.30
2010,08,21,05,29,7.30
2010,08,21,05,30,7.30
2010,08,21,05,31,7.30
2010,08,21,05,32,7.30
2010,08,21,05,33,7.30
2010,08,21,05,34,7.30
2010,08,21,05,35,7.30
2010,08,21,05,36,7.30
2010,08,21,05,37,7.30
2010,08,21,05,38,7.30
2010,08,21,05,39,7.30
2010,08,21,05,40,7.30
2010,08,21,05,41,7.30
2010,08,21,05,42,7.30
2010,08,21,05,43,7.30
2010,08,21,05,44,7.30
2010,08,21,05,45,7.30
2010,08,21,05,46,7.30
2010,08,21,05,47,7.30
2010,08,21,05,48,7.30
2010,08,21,05,49,7.30
2010,08,21,05,50,7.30
2010,08,21,05,51,7.30
2010,08,21,05,52,7.30
2010,08,21,05,53,7.30
2010,08,21,05,54,7.30
2010,08,21,05,55,7.30
2010,08,21,05,56,7.30
2010,08,21,05,57,7.30
2010,08,21,05,58,7.30
2010,08,21,05,59,7.30
2010,08,21,06,00,7.30
2010,08,21,06,01,7.30
2010,08,21,06,02,7.30
2010,08,21,06,03,7.30
2010,08,21,06,04,7.30
2010,08,21,06,05,7.30
2010,08,21,06,06,7.30
2010,08,21,06,07,7.30
2010,08,21,06,08,7.20
2010,08,21,06,09,7.20
2010,08,21,06,10,7.20
2010,08,21,06,11,7.20
2010,08,21,06,12,7.20
2010,08,21,06,13,7.20
2010,08,21,06,14,7.20
2010,08,21,06,15,7.20
2010,08,21,06,16,7.20
2010,08,21,06,17,7.20
2010,08,21,06,18,7.20
2010,08,21,06,19,7.20
2010,08,21,06,20,7.20
2010,08,21,06,21,7.20
2010,08,21,06,22,7.20
2010,08,21,06,23,7.10
2010,08,21,06,24,7.10
2010,08,21,06,25,7.10
2010,08,21,06,26,7.10
2010,08,21,06,27,7.10
2010,08,21,06,28,7.10
2010,08,21,06,29,7.20
2010,08,21,06,30,7.20
2010,08,21,06,31,7.20
2010,08,21,06,32,7.20
2010,08,21,06,33,7.20
2010,08,21,06,34,7.30
2010,08,21,06,35,7.30
2010,08,21,06,36,7.30
2010,08,21,06,37,7.30
2010,08,21,06,38,7.30
2010,08,21,06,39,7.30
2010,08,21,06,40,7.30
2010,08,21,06,41,7.30
2010,08,21,06,42,7.30
2010,08,21,06,43,7.30
2010,08,21,06,44,7.30
2010,08,21,06,45,7.30
2010,08,21,06,46,7.30
2010,08,21,06,47,7.30
2010,08,21,06,48,7.30
2010,08,21,06,49,7.30
2010,08,21,06,50,7.30
2010,08,21,06,51,7.30
2010,08,21,06,52,7.30
2010,08,21,06,53,7.30
2010,08,21,06,54,7.30
2010,08,21,06,55,7.30
2010,08,21,06,56,7.30
2010,08,21,06,57,7.30
2010,08,21,06,58,7.20
2010,08,21,06,59,7.20
2010,08,21,07,00,7.30
2010,08,21,07,01,7.30
2010,08,21,07,02,7.30
2010,08,21,07,03,7.30
2010,08,21,07,04,7.30
2010,08,21,07,05,7.30
2010,08,21,07,06,7.30
2010,08,21,07,07,7.40
2010,08,21,07,08,7.40
2010,08,21,07,09,7.50
2010,08,21,07,10,7.60
2010,08,21,07,11,7.60
2010,08,21,07,12,7.70
2010,08,21,07,13,7.70
2010,08,21,07,14,7.70
2010,08,21,07,15,7.80
2010,08,21,07,16,7.80
2010,08,21,07,17,7.80
2010,08,21,07,18,7.80
2010,08,21,07,19,7.80
2010,08,21,07,20,7.80
2010,08,21,07,21,7.80
2010,08,21,07,22,7.80
2010,08,21,07,23,7.80
2010,08,21,07,24,7.80
2010,08,21,07,25,7.80
2010,08,21,07,26,7.80
2010,08,21,07,27,7.80
2010,08,21,07,28,7.80
2010,08,21,07,29,7.80
2010,08,21,07,30,7.90
2010,08,21,07,31,7.90
2010,08,21,07,32,7.90
2010,08,21,07,33,7.90
2010,08,21,07,34,8.00
2010,08,21,07,35,8.00
2010,08,21,07,36,8.00
2010,08,21,07,37,8.10
2010,08,21,07,38,8.10
2010,08,21,07,39,8.10
2010,08,21,07,40,8.20
2010,08,21,07,41,8.20
2010,08,21,07,42,8.20
2010,08,21,07,43,8.20
2010,08,21,07,44,8.30
2010,08,21,07,45,8.30
2010,08,21,07,46,8.30
2010,08,21,07,47,8.40
2010,08,21,07,48,8.40
2010,08,21,07,49,8.50
2010,08,21,07,50,8.50
2010,08,21,07,51,8.60
2010,08,21,07,52,8.60
2010,08,21,07,53,8.60
2010,08,21,07,54,8.70
2010,08,21,07,55,8.70
2010,08,21,07,56,8.70
2010,08,21,07,57,8.70
2010,08,21,07,58,8.70
2010,08,21,07,59,8.70
2010,08,21,08,00,8.70
2010,08,21,08,01,8.70
2010,08,21,08,02,8.70
2010,08,21,08,03,8.70
2010,08,21,08,04,8.70
2010,08,21,08,05,8.70
2010,08,21,08,06,8.70
2010,08,21,08,07,8.80
2010,08,21,08,08,8.80
2010,08,21,08,09,8.80
2010,08,21,08,10,8.80
2010,08,21,08,11,8.80
2010,08,21,08,12,8.90
2010,08,21,08,13,8.90
2010,08,21,08,14,8.90
2010,08,21,08,15,8.90
2010,08,21,08,16,9.00
2010,08,21,08,17,9.00
2010,08,21,08,18,9.00
2010,08,21,08,19,9.10
2010,08,21,08,20,9.20
2010,08,21,08,21,9.20
2010,08,21,08,22,9.30
2010,08,21,08,23,9.30
2010,08,21,08,24,9.40
2010,08,21,08,25,9.50
2010,08,21,08,26,9.60
2010,08,21,08,27,9.70
2010,08,21,08,28,9.80
2010,08,21,08,29,9.80
2010,08,21,08,30,9.90
2010,08,21,08,31,10.00
2010,08,21,08,32,10.10
2010,08,21,08,33,10.10
2010,08,21,08,34,10.20
2010,08,21,08,35,10.30
2010,08,21,08,36,10.30
2010,08,21,08,37,10.30
2010,08,21,08,38,10.30
2010,08,21,08,39,10.30
2010,08,21,08,40,10.30
2010,08,21,08,41,10.30
2010,08,21,08,42,10.40
2010,08,21,08,43,10.40
2010,08,21,08,44,10.40
2010,08,21,08,45,10.50
2010,08,21,08,46,10.60
2010,08,21,08,47,10.60
2010,08,21,08,48,10.60
2010,08,21,08,49,10.70
2010,08,21,08,50,10.70
2010,08,21,08,51,10.70
2010,08,21,08,52,10.80
2010,08,21,08,53,10.80
2010,08,21,08,54,10.70
2010,08,21,08,55,10.80
2010,08,21,08,56,10.80
2010,08,21,08,57,10.80
2010,08,21,08,58,10.80
2010,08,21,08,59,10.80
2010,08,21,09,00,10.90
2010,08,21,09,01,10.90
2010,08,21,09,02,10.90
2010,08,21,09,03,11.10
2010,08,21,09,04,11.10
2010,08,21,09,05,11.10
2010,08,21,09,06,11.20
2010,08,21,09,07,11.20
2010,08,21,09,08,11.20
2010,08,21,09,09,11.20
2010,08,21,09,10,11.20
2010,08,21,09,11,11.20
2010,08,21,09,12,11.20
2010,08,21,09,13,11.30
2010,08,21,09,14,11.30
2010,08,21,09,15,11.40
2010,08,21,09,16,11.40
2010,08,21,09,17,11.30
2010,08,21,09,18,11.30
2010,08,21,09,19,11.30
2010,08,21,09,20,11.30
2010,08,21,09,21,11.30
2010,08,21,09,22,11.30
2010,08,21,09,23,11.30
2010,08,21,09,24,11.20
2010,08,21,09,25,11.20
2010,08,21,09,26,11.10
2010,08,21,09,27,11.10
2010,08,21,09,28,11.10
2010,08,21,09,29,11.20
2010,08,21,09,30,11.20
2010,08,21,09,31,11.20
2010,08,21,09,32,11.30
2010,08,21,09,33,11.40
2010,08,21,09,34,11.40
2010,08,21,09,35,11.50
2010,08,21,09,36,11.60
2010,08,21,09,37,11.60
2010,08,21,09,38,11.70
2010,08,21,09,39,11.70
2010,08,21,09,40,11.70
2010,08,21,09,41,11.70
2010,08,21,09,42,11.80
2010,08,21,09,43,11.80
2010,08,21,09,44,11.80
2010,08,21,09,45,11.80
2010,08,21,09,46,11.80
2010,08,21,09,47,11.80
2010,08,21,09,48,11.90
2010,08,21,09,49,12.00
2010,08,21,09,50,12.00
2010,08,21,09,51,12.10
2010,08,21,09,52,12.10
2010,08,21,09,53,12.10
2010,08,21,09,54,12.20
2010,08,21,09,55,12.20
2010,08,21,09,56,12.30
2010,08,21,09,57,12.20
2010,08,21,09,58,12.20
2010,08,21,09,59,12.20
2010,08,21,10,00,12.10
2010,08,21,10,01,12.10
2010,08,21,10,02,12.10
2010,08,21,10,03,12.10
2010,08,21,10,04,12.10
2010,08,21,10,05,12.00
2010,08,21,10,06,12.00
2010,08,21,10,07,11.90
2010,08,21,10,08,11.90
2010,08,21,10,09,11.90
2010,08,21,10,10,11.90
2010,08,21,10,11,11.90
2010,08,21,10,12,11.90
2010,08,21,10,13,11.80
2010,08,21,10,14,11.80
2010,08,21,10,15,11.80
2010,08,21,10,16,11.80
2010,08,21,10,17,11.80
2010,08,21,10,18,11.80
2010,08,21,10,19,11.80
2010,08,21,10,20,11.80
2010,08,21,10,21,11.80
2010,08,21,10,22,11.70
2010,08,21,10,23,11.70
2010,08,21,10,24,11.60
2010,08,21,10,25,11.60
2010,08,21,10,26,11.60
2010,08,21,10,27,11.60
2010,08,21,10,28,11.60
2010,08,21,10,29,11.60
2010,08,21,10,30,11.60
2010,08,21,10,31,11.60
2010,08,21,10,32,11.50
2010,08,21,10,33,11.40
2010,08,21,10,34,11.40
2010,08,21,10,35,11.40
2010,08,21,10,36,11.50
2010,08,21,10,37,11.60
2010,08,21,10,38,11.60
2010,08,21,10,39,11.50
2010,08,21,10,40,11.40
2010,08,21,10,41,11.40
2010,08,21,10,42,11.40
2010,08,21,10,43,11.40
2010,08,21,10,44,11.40
2010,08,21,10,45,11.50
2010,08,21,10,46,11.60
2010,08,21,10,47,11.60
2010,08,21,10,48,11.60
2010,08,21,10,49,11.50
2010,08,21,10,50,11.40
2010,08,21,10,51,11.40
2010,08,21,10,52,11.30
2010,08,21,10,53,11.30
2010,08,21,10,54,11.40
2010,08,21,10,55,11.40
2010,08,21,10,56,11.30
2010,08,21,10,57,11.30
2010,08,21,10,58,11.30
2010,08,21,10,59,11.30
2010,08,21,11,00,11.30
2010,08,21,11,01,11.30
2010,08,21,11,02,11.30
2010,08,21,11,03,11.20
2010,08,21,11,04,11.20
2010,08,21,11,05,11.20
2010,08,21,11,06,11.20
2010,08,21,11,07,11.20
2010,08,21,11,08,11.10
2010,08,21,11,09,11.10
2010,08,21,11,10,11.10
2010,08,21,11,11,11.10
2010,08,21,11,12,11.10
2010,08,21,11,13,11.00
2010,08,21,11,14,10.90
2010,08,21,11,15,10.90
2010,08,21,11,16,10.90
2010,08,21,11,17,10.90
2010,08,21,11,18,10.90
2010,08,21,11,19,10.90
2010,08,21,11,20,10.90
2010,08,21,11,21,10.90
2010,08,21,11,22,10.90
2010,08,21,11,23,10.90
2010,08,21,11,24,10.90
2010,08,21,11,25,11.10
2010,08,21,11,26,11.10
2010,08,21,11,27,11.10
2010,08,21,11,28,11.10
2010,08,21,11,29,11.10
2010,08,21,11,30,11.10
2010,08,21,11,31,11.20
2010,08,21,11,32,11.20
2010,08,21,11,33,11.30
2010,08,21,11,34,11.30
2010,08,21,11,35,11.40
2010,08,21,11,36,11.40
2010,08,21,11,37,11.50
2010,08,21,11,38,11.60
2010,08,21,11,39,11.60
2010,08,21,11,40,11.70
2010,08,21,11,41,11.70
2010,08,21,11,42,11.80
2010,08,21,11,43,11.80
2010,08,21,11,44,11.80
2010,08,21,11,45,11.80
2010,08,21,11,46,12.00
2010,08,21,11,47,12.10
2010,08,21,11,48,12.20
2010,08,21,11,49,12.30
2010,08,21,11,50,12.40
2010,08,21,11,51,12.50
2010,08,21,11,52,12.60
2010,08,21,11,53,12.60
2010,08,21,11,54,12.70
2010,08,21,11,55,12.80
2010,08,21,11,56,12.80
2010,08,21,11,57,12.80
2010,08,21,11,58,12.90
2010,08,21,11,59,12.90
2010,08,21,12,00,12.90
2010,08,21,12,01,12.90
2010,08,21,12,02,13.00
2010,08,21,12,03,13.10
2010,08,21,12,04,13.10
2010,08,21,12,05,13.20
2010,08,21,12,06,13.30
2010,08,21,12,07,13.30
2010,08,21,12,08,13.30
2010,08,21,12,09,13.40
2010,08,21,12,10,13.50
2010,08,21,12,11,13.60
2010,08,21,12,12,13.60
2010,08,21,12,13,13.60
2010,08,21,12,14,13.60
2010,08,21,12,15,13.60
2010,08,21,12,16,13.50
2010,08,21,12,17,13.40
2010,08,21,12,18,13.40
2010,08,21,12,19,13.30
2010,08,21,12,20,13.30
2010,08,21,12,21,13.20
2010,08,21,12,22,13.30
2010,08,21,12,23,13.30
2010,08,21,12,24,13.30
2010,08,21,12,25,13.30
2010,08,21,12,26,13.40
2010,08,21,12,27,13.50
2010,08,21,12,28,13.50
2010,08,21,12,29,13.50
2010,08,21,12,30,13.50
2010,08,21,12,31,13.50
2010,08,21,12,32,13.50
2010,08,21,12,33,13.60
2010,08,21,12,34,13.60
2010,08,21,12,35,13.60
2010,08,21,12,36,13.60
2010,08,21,12,37,13.60
2010,08,21,12,38,13.60
2010,08,21,12,39,13.60
2010,08,21,12,40,13.60
2010,08,21,12,41,13.50
2010,08,21,12,42,13.50
2010,08,21,12,43,13.40
2010,08,21,12,44,13.40
2010,08,21,12,45,13.40
2010,08,21,12,46,13.30
2010,08,21,12,47,13.30
2010,08,21,12,48,13.20
2010,08,21,12,49,13.10
2010,08,21,12,50,13.00
2010,08,21,12,51,12.90
2010,08,21,12,52,12.80
2010,08,21,12,53,12.80
2010,08,21,12,54,12.80
2010,08,21,12,55,12.90
2010,08,21,12,56,12.90
2010,08,21,12,57,12.90
2010,08,21,12,58,12.90
2010,08,21,12,59,12.90
2010,08,21,13,00,13.00
2010,08,21,13,01,13.00
2010,08,21,13,02,13.00
2010,08,21,13,03,13.00
2010,08,21,13,04,13.10
2010,08,21,13,05,13.10
2010,08,21,13,06,13.20
2010,08,21,13,07,13.20
2010,08,21,13,08,13.30
2010,08,21,13,09,13.40
2010,08,21,13,10,13.50
2010,08,21,13,11,13.60
2010,08,21,13,12,13.70
2010,08,21,13,13,13.70
2010,08,21,13,14,13.80
2010,08,21,13,15,13.90
2010,08,21,13,16,14.00
2010,08,21,13,17,14.10
2010,08,21,13,18,14.10
2010,08,21,13,19,14.20
2010,08,21,13,20,14.20
2010,08,21,13,21,14.20
2010,08,21,13,22,14.30
2010,08,21,13,23,14.40
2010,08,21,13,24,14.40
2010,08,21,13,25,14.50
2010,08,21,13,26,14.60
2010,08,21,13,27,14.70
2010,08,21,13,28,14.80
2010,08,21,13,29,14.80
2010,08,21,13,30,14.80
2010,08,21,13,31,14.90
2010,08,21,13,32,14.90
2010,08,21,13,33,15.00
2010,08,21,13,34,15.10
2010,08,21,13,35,15.10
2010,08,21,13,36,15.30
2010,08,21,13,37,15.40
2010,08,21,13,38,15.50
2010,08,21,13,39,15.60
2010,08,21,13,40,15.80
2010,08,21,13,41,16.00
2010,08,21,13,42,16.20
2010,08,21,13,43,16.50
2010,08,21,13,44,16.80
2010,08,21,13,45,17.10
2010,08,21,13,46,17.40
2010,08,21,13,47,17.70
2010,08,21,13,48,17.90
2010,08,21,13,49,18.10
2010,08,21,13,50,18.30
2010,08,21,13,51,18.60
2010,08,21,13,52,18.80
2010,08,21,13,53,19.00
2010,08,21,13,54,19.10
2010,08,21,13,55,19.10
2010,08,21,13,56,19.10
2010,08,21,13,57,19.10
2010,08,21,13,58,19.10
2010,08,21,13,59,19.10
2010,08,21,14,00,19.10
2010,08,21,14,01,19.20
2010,08,21,14,02,19.20
2010,08,21,14,03,19.30
2010,08,21,14,04,19.30
2010,08,21,14,05,19.40
2010,08,21,14,06,19.40
2010,08,21,14,07,19.30
2010,08,21,14,08,19.20
2010,08,21,14,09,19.10
2010,08,21,14,10,19.10
2010,08,21,14,11,19.10
2010,08,21,14,12,19.20
2010,08,21,14,13,19.40
2010,08,21,14,14,19.40
2010,08,21,14,15,19.20
2010,08,21,14,16,19.10
2010,08,21,14,17,19.00
2010,08,21,14,18,18.90
2010,08,21,14,19,18.80
2010,08,21,14,20,18.80
2010,08,21,14,21,18.70
2010,08,21,14,22,18.70
2010,08,21,14,23,18.80
2010,08,21,14,24,18.80
2010,08,21,14,25,18.80
2010,08,21,14,26,18.80
2010,08,21,14,27,18.80
2010,08,21,14,28,18.80
2010,08,21,14,29,18.80
2010,08,21,14,30,18.90
2010,08,21,14,31,18.90
2010,08,21,14,32,18.90
2010,08,21,14,33,18.90
2010,08,21,14,34,19.10
2010,08,21,14,35,19.10
2010,08,21,14,36,19.20
2010,08,21,14,37,19.20
2010,08,21,14,38,19.20
2010,08,21,14,39,19.10
2010,08,21,14,40,19.10
2010,08,21,14,41,19.10
2010,08,21,14,42,19.10
2010,08,21,14,43,19.10
2010,08,21,14,44,19.10
2010,08,21,14,45,19.10
2010,08,21,14,46,19.00
2010,08,21,14,47,18.90
2010,08,21,14,48,19.00
2010,08,21,14,49,19.10
2010,08,21,14,50,19.10
2010,08,21,14,51,19.20
2010,08,21,14,52,19.30
2010,08,21,14,53,19.40
2010,08,21,14,54,19.30
2010,08,21,14,55,19.10
2010,08,21,14,56,19.10
2010,08,21,14,57,19.20
2010,08,21,14,58,19.20
2010,08,21,14,59,19.20
2010,08,21,15,00,19.30
2010,08,21,15,01,19.40
2010,08,21,15,02,19.40
2010,08,21,15,03,19.50
2010,08,21,15,04,19.50
2010,08,21,15,05,19.50
2010,08,21,15,06,19.50
2010,08,21,15,07,19.50
2010,08,21,15,08,19.50
2010,08,21,15,09,19.50
2010,08,21,15,10,19.50
2010,08,21,15,11,19.50
2010,08,21,15,12,19.40
2010,08,21,15,13,19.40
2010,08,21,15,14,19.40
2010,08,21,15,15,19.40
2010,08,21,15,16,19.50
2010,08,21,15,17,19.50
2010,08,21,15,18,19.60
2010,08,21,15,19,19.60
2010,08,21,15,20,19.60
2010,08,21,15,21,19.60
2010,08,21,15,22,19.50
2010,08,21,15,23,19.40
2010,08,21,15,24,19.30
2010,08,21,15,25,19.30
2010,08,21,15,26,19.30
2010,08,21,15,27,19.40
2010,08,21,15,28,19.40
2010,08,21,15,29,19.40
2010,08,21,15,30,19.40
2010,08,21,15,31,19.40
2010,08,21,15,32,19.30
2010,08,21,15,33,19.30
2010,08,21,15,34,19.40
2010,08,21,15,35,19.50
2010,08,21,15,36,19.50
2010,08,21,15,37,19.40
2010,08,21,15,38,19.30
2010,08,21,15,39,19.20
2010,08,21,15,40,19.20
2010,08,21,15,41,19.30
2010,08,21,15,42,19.30
2010,08,21,15,43,19.30
2010,08,21,15,44,19.40
2010,08,21,15,45,19.40
2010,08,21,15,46,19.40
2010,08,21,15,47,19.40
2010,08,21,15,48,19.50
2010,08,21,15,49,19.50
2010,08,21,15,50,19.50
2010,08,21,15,51,19.50
2010,08,21,15,52,19.50
2010,08,21,15,53,19.30
2010,08,21,15,54,19.30
2010,08,21,15,55,19.30
2010,08,21,15,56,19.30
2010,08,21,15,57,19.30
2010,08,21,15,58,19.20
2010,08,21,15,59,19.10
2010,08,21,16,00,19.20
2010,08,21,16,01,19.30
2010,08,21,16,02,19.40
2010,08,21,16,03,19.40
2010,08,21,16,04,19.30
2010,08,21,16,05,19.30
2010,08,21,16,06,19.30
2010,08,21,16,07,19.30
2010,08,21,16,08,19.40
2010,08,21,16,09,19.30
2010,08,21,16,10,19.30
2010,08,21,16,11,19.20
2010,08,21,16,12,19.00
2010,08,21,16,13,18.90
2010,08,21,16,14,18.90
2010,08,21,16,15,18.90
2010,08,21,16,16,18.90
2010,08,21,16,17,18.90
2010,08,21,16,18,18.90
2010,08,21,16,19,18.80
2010,08,21,16,20,18.80
2010,08,21,16,21,18.80
2010,08,21,16,22,18.80
2010,08,21,16,23,18.70
2010,08,21,16,24,18.80
2010,08,21,16,25,18.70
2010,08,21,16,26,18.70
2010,08,21,16,27,18.70
2010,08,21,16,28,18.60
2010,08,21,16,29,18.60
2010,08,21,16,30,18.60
2010,08,21,16,31,18.60
2010,08,21,16,32,18.60
2010,08,21,16,33,18.70
2010,08,21,16,34,18.80
2010,08,21,16,35,18.90
2010,08,21,16,36,19.00
2010,08,21,16,37,19.10
2010,08,21,16,38,19.10
2010,08,21,16,39,19.00
2010,08,21,16,40,18.80
2010,08,21,16,41,18.70
2010,08,21,16,42,18.60
2010,08,21,16,43,18.50
2010,08,21,16,44,18.50
2010,08,21,16,45,18.50
2010,08,21,16,46,18.40
2010,08,21,16,47,18.40
2010,08,21,16,48,18.30
2010,08,21,16,49,18.20
2010,08,21,16,50,18.20
2010,08,21,16,51,18.20
2010,08,21,16,52,18.20
2010,08,21,16,53,18.20
2010,08,21,16,54,18.20
2010,08,21,16,55,18.20
2010,08,21,16,56,18.20
2010,08,21,16,57,18.20
2010,08,21,16,58,18.20
2010,08,21,16,59,18.20
2010,08,21,17,00,18.20
2010,08,21,17,01,18.10
2010,08,21,17,02,18.10
2010,08,21,17,03,18.10
2010,08,21,17,04,18.00
2010,08,21,17,05,17.90
2010,08,21,17,06,17.90
2010,08,21,17,07,17.90
2010,08,21,17,08,17.90
2010,08,21,17,09,17.90
2010,08,21,17,10,18.00
2010,08,21,17,11,18.10
2010,08,21,17,12,18.10
2010,08,21,17,13,18.20
2010,08,21,17,14,18.20
2010,08,21,17,15,18.20
2010,08,21,17,16,18.20
2010,08,21,17,17,18.20
2010,08,21,17,18,18.20
2010,08,21,17,19,18.20
2010,08,21,17,20,18.20
2010,08,21,17,21,18.20
2010,08,21,17,22,18.20
2010,08,21,17,23,18.20
2010,08,21,17,24,18.20
2010,08,21,17,25,18.20
2010,08,21,17,26,18.20
2010,08,21,17,27,18.20
2010,08,21,17,28,18.20
2010,08,21,17,29,18.20
2010,08,21,17,30,18.10
2010,08,21,17,31,18.00
2010,08,21,17,32,17.80
2010,08,21,17,33,17.70
2010,08,21,17,34,17.70
2010,08,21,17,35,17.50
2010,08,21,17,36,17.50
2010,08,21,17,37,17.40
2010,08,21,17,38,17.30
2010,08,21,17,39,17.30
2010,08,21,17,40,17.40
2010,08,21,17,41,17.40